Back to catalog

STARLINK-34661

AliveCommunicationsVLEO
NORAD 64927·PAYLOAD·🇺🇸 United States

Launched Jul 26, 2025 from Cape Canaveral Space Force Station

Loading…

Next Passes (next 24 hours)

TLE

FreshSource: CelesTrak SupGP

Epoch: Sep 14, 2026, 14:52 UTC

1 64927C 25157Z   26257.61993056  .00057196  00000+0  16906-2 0  2577
2 64927  53.1569 185.0511 0001106  87.3370 241.3615 15.34348835    13

Track STARLINK-34661 in real time with AllMySat

Download on the App Store